TURKSAT 5A

Last updated on Thu Oct 30 2025 00:02:51 GMT+0000 (Coordinated Universal Time)

1 47306U 21001A 25301.83501787 .00000164 00000+0 00000+0 0 9993 2 47306 0.0398 69.2823 0000172 328.8288 330.8670 1.00271926 17644
UTC large
Height (km)
Speed (km/s)
/
Latitude / Longitude
Inclination (degrees)
Orbital Period (minutes)
Azimuth
Elevation
Range (km)
Doppler Factor

Next 0 passes for location: London (51.5072 / 0.1276)

Sorry there are no passes over London.